Location: The Saddle
(36.8333°N, 80.3417°W)
Time: 15:33:20
(UTC-05:00)

A-11 Canister half - Pass Details

Date: 13 December 2023
Orbit: 1526 x 1682 km, 47.3° (Epoch: 01 March)

Event Time Altitude Azimuth Distance (km) Brightness Sun altitude
Rises 14:00:16 0° 177° (S) 4,837 12.6 25.1°
Reaches altitude 10° 14:04:52 10° 159° (SSE) 3,881 11.8 24.7°
Maximum altitude 14:10:38 17° 123° (ESE) 3,369 11.0 24.2°
Drops below altitude 10° 14:16:27 10° 87° (E) 3,936 10.9 23.6°
Sets 14:21:07 0° 69° (ENE) 4,935 11.2 23.1°
